Weather History for Dothan, AL

Change the Weather History Date:

Tuesday, February 5, 2013

  Actual Average Record
Temperature  
Mean Temperature 57 °F 51 °F  
Max Temperature 66 °F 63 °F 83 °F (1943)
Min Temperature 48 °F 39 °F 22 °F (1947)
Degree Days  
Heating Degree Days 8 14  
Month to date heating degree days 73 73  
Since 1 July heating degree days 979 1289  
Growing Degree Days 7 (Base 50)    
Moisture  
Dew Point 53 °F    
Average Humidity 91    
Maximum Humidity 100    
Minimum Humidity 68    
Precipitation  
Precipitation 0.13 in 0.14 in 0.93 in (1964)
Month to date precipitation 0.14 0.70  
Year to date precipitation 0.29 5.33  
Sea Level Pressure  
Sea Level Pressure 30.06 in    
Wind  
Wind Speed 3 mph (SSE)    
Max Wind Speed 9 mph    
Max Gust Speed -    
Visibility 7 miles    
Events Fog , Rain    
T = Trace of Precipitation, MM = Missing Value Source: NWS Daily Summary

Daily Weather History Graph

Daily Weather History Graph

Search for Another Location

Airport:

Trip Planner

Search our weather history database for the weather conditions in past years. The results will help you decide how hot, cold, wet, or windy it might be!

Date:

Astronomy

Feb. 05, 2013 Rise Set
Actual Time 6:31 AM CST 5:20 PM CST
Civil Twilight 6:06 AM CST 5:45 PM CST
Nautical Twilight 5:37 AM CST 6:14 PM CST
Astronomical Twilight 5:08 AM CST 6:43 PM CST
Moon 2:05 AM CST (2/5) 12:44 PM CST (2/5)
Length of Visible Light 11h 39m
Length of Day
10h 49m
Waning Crescent, 26% of the Moon is Illuminated
Feb 5
Waning Crescent
Feb 10
New
Feb 17
First Quarter
Feb 25
Full
Mar 4
Last Quarter

Hourly Weather History & Observations

Time (CST) Temp. Dew Point Humidity Pressure Visibility Wind Dir Wind Speed Gust Speed Precip Events Conditions
12:53 AM 50.0 °F 43.0 °F 77% 30.04 in 10.0 mi SE 4.6 mph - N/A   Partly Cloudy
1:53 AM 51.1 °F 44.1 °F 77% 30.03 in 10.0 mi South 3.5 mph - 0.00 in Rain Light Rain
2:53 AM 52.0 °F 48.9 °F 89% 30.04 in 10.0 mi SSW 4.6 mph - 0.02 in Rain Light Rain
3:53 AM 51.1 °F 48.9 °F 92% 30.04 in 10.0 mi South 3.5 mph - 0.02 in Rain Light Rain
4:53 AM 51.1 °F 48.9 °F 92% 30.04 in 10.0 mi Calm Calm - 0.00 in   Overcast
5:53 AM 52.0 °F 50.0 °F 93% 30.06 in 6.0 mi Calm Calm - 0.03 in Rain Light Rain
6:53 AM 52.0 °F 51.1 °F 97% 30.07 in 10.0 mi Calm Calm - 0.01 in   Overcast
7:53 AM 53.1 °F 52.0 °F 96% 30.09 in 10.0 mi SSW 5.8 mph - 0.00 in   Overcast
8:53 AM 55.0 °F 53.1 °F 93% 30.10 in 9.0 mi South 5.8 mph - N/A   Overcast
9:53 AM 57.0 °F 54.0 °F 89% 30.10 in 10.0 mi South 4.6 mph - N/A   Overcast
10:53 AM 57.9 °F 54.0 °F 87% 30.10 in 10.0 mi Calm Calm - 0.00 in   Overcast
11:53 AM 63.0 °F 55.0 °F 75% 30.08 in 10.0 mi Calm Calm - N/A   Overcast
12:53 PM 63.0 °F 53.1 °F 70% 30.05 in 10.0 mi Calm Calm - N/A   Overcast
1:53 PM 64.9 °F 54.0 °F 68% 30.04 in 10.0 mi Calm Calm - N/A   Mostly Cloudy
2:53 PM 63.0 °F 55.0 °F 75% 30.03 in 10.0 mi Calm Calm - 0.00 in   Overcast
3:53 PM 64.0 °F 55.0 °F 73% 30.03 in 10.0 mi ESE 3.5 mph - N/A   Overcast
4:49 PM 62.6 °F 55.4 °F 77% 30.03 in 10.0 mi South 9.2 mph - N/A   Overcast
4:53 PM 61.0 °F 54.0 °F 78% 30.03 in 10.0 mi South 9.2 mph - 0.00 in Rain Light Rain
5:14 PM 57.2 °F 57.2 °F 100% 30.04 in 5.0 mi South 6.9 mph - 0.00 in Rain Light Rain
5:48 PM 57.2 °F 57.2 °F 100% 30.05 in 6.0 mi South 5.8 mph - 0.00 in Rain Light Rain
5:53 PM 57.9 °F 57.0 °F 97% 30.04 in 7.0 mi South 5.8 mph - 0.00 in Rain Light Rain
6:10 PM 57.2 °F 55.4 °F 94% 30.05 in 2.5 mi SSE 5.8 mph - 0.02 in Rain Rain
6:18 PM 57.2 °F 55.4 °F 94% 30.05 in 4.0 mi SSE 4.6 mph - 0.02 in Rain Light Rain
6:53 PM 57.0 °F 55.9 °F 96% 30.05 in 6.0 mi SSE 4.6 mph - 0.04 in Rain Light Rain
7:01 PM 57.2 °F 55.4 °F 94% 30.05 in 6.0 mi SSE 8.1 mph - 0.01 in Rain Light Rain
7:53 PM 55.9 °F 55.0 °F 97% 30.06 in 10.0 mi SSE 4.6 mph - 0.01 in   Overcast
8:53 PM 55.9 °F 55.0 °F 97% 30.07 in 10.0 mi Calm Calm - N/A   Clear
9:13 PM 55.4 °F 55.4 °F 100% 30.08 in 10.0 mi Calm Calm - N/A   Mostly Cloudy
9:41 PM 53.6 °F 53.6 °F 100% 30.08 in 8.0 mi SSE 3.5 mph - N/A   Scattered Clouds
9:53 PM 54.0 °F 53.1 °F 97% 30.08 in 2.5 mi Calm Calm - N/A   Partly Cloudy
10:00 PM 53.6 °F 53.6 °F 100% 30.09 in 1.5 mi North 3.5 mph - N/A   Scattered Clouds
10:03 PM 53.6 °F 53.6 °F 100% 30.09 in 2.0 mi North 6.9 mph - N/A   Mostly Cloudy
10:07 PM 55.4 °F 53.6 °F 94% 30.09 in 7.0 mi North 8.1 mph - N/A   Mostly Cloudy
10:23 PM 55.4 °F 55.4 °F 100% 30.09 in 7.0 mi Calm Calm - N/A   Overcast
10:34 PM 55.4 °F 55.4 °F 100% 30.09 in 2.5 mi Calm Calm - N/A   Overcast
10:44 PM 55.4 °F 55.4 °F 100% 30.08 in 1.8 mi Calm Calm - N/A   Overcast
10:50 PM 55.4 °F 53.6 °F 94% 30.08 in 0.8 mi Calm Calm - N/A   Overcast
10:51 PM 55.0 °F 54.0 °F 96% 30.08 in 0.8 mi Calm Calm - N/A   Overcast
11:01 PM 53.6 °F 53.6 °F 100% 30.09 in 0.2 mi Calm Calm - N/A Fog Fog
11:31 PM 53.6 °F 53.6 °F 100% 30.08 in 0.2 mi Calm Calm - N/A Fog Fog
11:53 PM 53.1 °F 52.0 °F 96% 30.08 in 0.2 mi Calm Calm - N/A Fog Fog